This is the latest recevied weather packets stored in our database for station/object IW5EIJ-10. If no packets are shown the sender has not sent any weather packets the latest 10 day(s).
| Time | Temp. | Humidity | Pressure | Rain* | Wind** | Luminosity | Snow |
|---|---|---|---|---|---|---|---|
| 1777775226 | 16.67° C | 35% | 1017.2 hPa | - | - | - | - |
| 1777774026 | 16.67° C | 35% | 1017.2 hPa | - | - | - | - |
| 1777772825 | 16.67° C | 34% | 1017.2 hPa | - | - | - | - |
| 1777771625 | 16.67° C | 34% | 1017.3 hPa | - | - | - | - |
| 1777770425 | 16.67° C | 35% | 1017.5 hPa | - | - | - | - |
| 1777769225 | 17.22° C | 34% | 1017.5 hPa | - | - | - | - |
| 1777768025 | 17.22° C | 34% | 1017.7 hPa | - | - | - | - |
| 1777766825 | 17.22° C | 34% | 1017.7 hPa | - | - | - | - |
| 1777765625 | 17.22° C | 34% | 1017.8 hPa | - | - | - | - |
| 1777764431 | 17.22° C | 34% | 1017.9 hPa | - | - | - | - |
| 1777763225 | 17.78° C | 32% | 1018 hPa | - | - | - | - |
| 1777762025 | 17.78° C | 33% | 1018 hPa | - | - | - | - |
| 1777760824 | 17.78° C | 33% | 1018.1 hPa | - | - | - | - |
| 1777759624 | 17.78° C | 33% | 1018.2 hPa | - | - | - | - |
| 1777758424 | 18.33° C | 33% | 1018.1 hPa | - | - | - | - |
| 1777757224 | 18.33° C | 32% | 1018.1 hPa | - | - | - | - |
| 1777756024 | 18.33° C | 32% | 1018.2 hPa | - | - | - | - |
| 1777754824 | 18.89° C | 32% | 1018.2 hPa | - | - | - | - |
| 1777752424 | 18.89° C | 31% | 1018.3 hPa | - | - | - | - |
| 1777751224 | 19.44° C | 30% | 1018.2 hPa | - | - | - | - |
| 1777750026 | 18.89° C | 30% | 1018 hPa | - | - | - | - |
| 1777748824 | 20° C | 30% | 1017.7 hPa | - | - | - | - |
| 1777747624 | 20.56° C | 28% | 1017.5 hPa | - | - | - | - |
| 1777746424 | 21.11° C | 26% | 1017.1 hPa | - | - | - | - |
| 1777745224 | 21.11° C | 28% | 1017 hPa | - | - | - | - |
* Rain since midnight (hover to see other rain measurements)
** Current wind speed in m/s (hover to see current wind gust speed)